[[{"header":{"parameterUnit":"m.s-1","parameterCategory":1,"la1":30.2991,"la2":30.254,"lo1":-89.0895,"lo2":-89.0444,"dy":0.0017,"dx":0.0017,"nx":28,"ny":28,"refTime":"2025-04-16T21:00:00:Z","depth":0,"parameterNumber":2,"parameterNumberName":"U-component_of_WINDS"},"data":[0,0,0,0,0,0,0,0,0,0,0,0,0,0,0,0,0,0,0,0,0,0,0,0,0,0,0,0,0,0,0,0,0,0,0,0,0,0,0,0,0,0,0,0,0,0,0,0,0,0,0,0,0,0,0,0,0,0,-4.1751,-4.1751,0,-4.1823,-4.1824,-4.1825,-4.179,-4.1789,-4.1787,-4.1785,-4.1858,-4.1861,-4.1865,0,0,0,0,0,0,0,0,0,0,0,0,0,-4.1582,-4.1585,-4.1751,-4.1752,-4.1752,-4.1823,-4.1824,-4.1825,-4.1791,-4.1788,-4.1786,-4.1784,-4.1857,-4.1861,-4.1865,0,0,0,0,0,0,0,0,0,0,0,0,0,-4.1655,-4.1586,-4.175,-4.1744,-4.1744,-4.1823,-4.1824,-4.1825,-4.1791,-4.1788,-4.1786,-4.1783,-4.1855,-4.186,-4.1866,-4.1955,0,0,-4.1883,-4.1885,0,0,0,0,0,0,0,0,-4.1651,-4.1661,-4.1744,-4.1744,-4.1745,-4.1795,-4.1791,-4.1869,-4.1792,-4.1773,-4.1785,-4.1782,-4.1839,-4.1846,-4.1865,-4.1958,-4.1962,-4.1883,-4.1886,-4.1889,-4.189,0,0,0,0,0,0,0,-4.1646,-4.1658,-4.1779,-4.1745,-4.1746,-4.1737,-4.1744,-4.1806,-4.1821,-4.1775,-4.1772,-4.1781,-4.1839,-4.186,-4.1867,-4.1963,-4.1883,-4.1888,-4.1891,-4.1893,-4.2134,-4.2137,0,0,0,0,0,0,-4.1641,-4.1654,-4.1777,-4.1781,-4.169,-4.1742,-4.1751,-4.1782,-4.182,-4.1823,-4.1784,-4.178,-4.1852,-4.186,-4.1869,-4.1976,-4.1889,-4.1894,-4.1897,-4.2131,-4.2135,-4.2138,0,0,0,0,0,0,-4.1638,-4.1652,-4.1774,-4.1717,-4.1732,-4.1748,-4.1783,-4.1784,-4.1806,-4.1827,-4.1829,-4.1803,-4.185,-4.1861,-4.1934,-4.1978,-4.1896,-4.1901,-4.2127,-4.2132,-4.2137,-4.2191,0,0,0,0,0,0,-4.1633,-4.1651,-4.1685,-4.1718,-4.1735,-4.1838,-4.1786,-4.1788,-4.1816,-4.1811,-4.1845,-4.1848,-4.1849,-4.1926,-4.194,-4.1984,-4.1906,-4.2124,-4.213,-4.2135,-4.2186,-4.2197,-4.2207,0,0,0,0,0,-4.1627,-4.1697,-4.1687,-4.1702,-4.1778,-4.1841,-4.185,-4.185,-4.1819,-4.1853,-4.1867,-4.1847,-4.1972,-4.1934,-4.1949,-4.1996,-4.2121,-4.2128,-4.2135,-4.2181,-4.2195,-4.2207,0,0,0,0,0,0,-4.1668,-4.1701,-4.169,-4.1773,-4.1805,-4.1835,-4.1877,-4.1865,-4.1905,-4.1898,-4.1896,-4.1904,-4.198,-4.1995,-4.1953,-4.2085,-4.2042,-4.2052,-4.2072,-4.2085,-4.2096,-4.209,-4.191,0,0,0,0,0,-4.1687,-4.1735,-4.1762,-4.1832,-4.1849,-4.1861,-4.1888,-4.1885,-4.1917,-4.193,-4.1949,-4.1981,-4.2027,-4.2057,-4.2101,-4.2189,-4.2196,-4.2229,-4.2239,-4.2248,-4.2257,-4.2305,-4.232,-4.2161,-4.2161,-4.2161,0,0,-4.1725,-4.175,-4.178,-4.1841,-4.1865,-4.1915,-4.1872,-4.1926,-4.1964,-4.1938,-4.2008,-4.2024,-4.2059,-4.214,-4.2176,-4.2155,-4.2303,-4.2257,-4.2264,-4.2268,-4.2314,-4.2329,-4.2342,-4.2166,-4.2165,-4.2164,0,0,-4.1821,-4.1845,-4.1907,-4.1932,-4.1969,-4.1978,-4.1993,-4.2026,-4.2035,-4.2106,-4.2088,-4.2133,-4.2212,-4.2238,-4.2262,-4.2372,-4.2355,-4.2386,-4.2442,-4.2489,-4.2501,-4.2512,-4.2551,-4.2565,-4.2395,-4.2395,-4.2395,0,-4.1864,-4.194,-4.194,-4.1997,-4.2024,-4.2005,-4.2068,-4.2092,-4.2142,-4.2161,-4.2137,-4.2238,-4.226,-4.2347,-4.2374,-4.2395,-4.2411,-4.2381,-4.25,-4.2511,-4.2521,-4.2558,-4.2573,-4.2398,-4.2398,-4.2398,-4.2397,0,-4.1991,-4.2044,-4.2089,-4.2138,-4.2171,-4.2231,-4.224,-4.2274,-4.2269,-4.228,-4.2353,-4.238,-4.2429,-4.245,-4.2445,-4.2537,-4.2523,-4.25,-4.2455,-4.254,-4.2574,-4.2588,-4.2403,-4.2402,-4.2401,-4.24,0,0,-4.2111,-4.2163,-4.2179,-4.2202,-4.2243,-4.2284,-4.2343,-4.2392,-4.2421,-4.2457,-4.2506,-4.2576,-4.2555,-4.2582,-4.2581,-4.2622,-4.2708,-4.2594,-4.2595,-4.2614,-4.281,-4.2826,-4.2843,-4.2698,-4.27,-4.2703,-4.2807,0,-4.221,-4.2314,-4.2317,-4.2412,-4.2461,-4.2445,-4.2497,-4.2528,-4.254,-4.2584,-4.2598,-4.2647,-4.2616,-4.2632,-4.2673,-4.2689,-4.2747,-4.2681,-4.2743,-4.2745,-4.2733,-4.2861,-4.2878,-4.2975,-4.2821,-4.2823,-4.2825,0,-4.2338,-4.2379,-4.2479,-4.2515,-4.2535,-4.2582,-4.2628,-4.267,-4.2705,-4.2712,-4.2743,-4.2737,-4.2798,-4.2754,-4.2838,-4.2793,-4.2819,-4.2831,-4.2835,-4.2839,-4.2789,-4.2867,-4.3006,-4.302,-4.2846,-4.2844,-4.2843,0,-4.2415,-4.2495,-4.2566,-4.2586,-4.2629,-4.2663,-4.2682,-4.2715,-4.2745,-4.2786,-4.2805,-4.2853,-4.2878,-4.2915,-4.2922,-4.2889,-4.3006,-4.2962,-4.3013,-4.3013,-4.3036,-4.3034,-4.3179,-4.3056,-4.3055,-4.3055,-4.3055,0,-4.2523,-4.2585,-4.2601,-4.2644,-4.2713,-4.2717,-4.2786,-4.2803,-4.2833,-4.2879,-4.2869,-4.2913,-4.292,-4.2965,-4.2971,-4.304,-4.3052,-4.3058,-4.3059,-4.3058,-4.3057,-4.3074,-4.3067,-4.3059,-4.3058,-4.3057,-4.3057,0,-4.262,-4.2633,-4.2709,-4.2745,-4.2756,-4.2805,-4.2836,-4.2878,-4.289,-4.2949,-4.2963,-4.2983,-4.3037,-4.3048,-4.311,-4.3114,-4.3196,-4.3191,-4.3184,-4.3183,-4.3232,-4.3227,-4.3392,-4.3413,-4.3277,-4.3278,-4.3279,0,-4.2687,-4.2734,-4.2776,-4.2807,-4.2829,-4.2878,-4.291,-4.2916,-4.2949,-4.2995,-4.3031,-4.3084,-4.3126,-4.3212,-4.3232,-4.3281,-4.3275,-4.333,-4.3282,-4.3281,-4.3275,-4.3272,-4.3276,-4.3338,-4.334,-4.3341,-4.3342,0,-4.2805,-4.281,-4.2855,-4.2904,-4.2942,-4.298,-4.3017,-4.3043,-4.3055,-4.3092,-4.3147,-4.318,-4.3246,-4.3298,-4.3347,-4.3368,-4.3357,-4.3357,-4.3371,-4.337,-4.3364,-4.3367,-4.3207,-4.3353,-4.3351,-4.3351,-4.335,-4.335,-4.2888,-4.293,-4.2966,-4.3018,-4.3047,-4.3082,-4.3123,-4.3142,-4.3188,-4.3242,-4.3244,-4.3304,-4.334,-4.3405,-4.3429,-4.3476,-4.3459,-4.348,-4.3485,-4.3489,-4.3493,-4.3359,-4.3486,-4.3485,-4.3485,-4.3485,-4.3485,0,-4.3005,-4.3028,-4.3076,-4.3128,-4.3169,-4.3157,-4.3198,-4.3233,-4.3286,-4.3321,-4.3364,-4.3428,-4.3479,-4.3504,-4.3556,-4.3589,-4.3585,-4.3602,-4.3598,-4.3603,-4.3506,-4.3488,-4.3604,-4.3604,-4.3604,-4.3604,-4.3604,-4.3604,-4.307,-4.314,-4.315,-4.3235,-4.3258,-4.3317,-4.3342,-4.3374,-4.3402,-4.3474,-4.3518,-4.3534,-4.3566,-4.362,-4.3667,-4.3673,-4.3691,-4.371,-4.3714,-4.3622,-4.361,-4.3598,-4.3582,-4.3715,-4.3715,-4.3807,-4.3808,-4.3809]},{"header":{"parameterUnit":"m.s-1","parameterCategory":1,"la1":30.2991,"la2":30.254,"lo1":-89.0895,"lo2":-89.0444,"dy":0.0017,"dx":0.0017,"nx":28,"ny":28,"refTime":"2025-04-16T21:00:00:Z","depth":0,"parameterNumber":3,"parameterNumberName":"V-component_of_WINDS"},"data":[0,0,0,0,0,0,0,0,0,0,0,0,0,0,0,0,0,0,0,0,0,0,0,0,0,0,0,0,0,0,0,0,0,0,0,0,0,0,0,0,0,0,0,0,0,0,0,0,0,0,0,0,0,0,0,0,0,0,2.8173,2.8172,0,2.8074,2.8073,2.8072,2.8016,2.8016,2.8016,2.8016,2.7909,2.7906,2.7904,0,0,0,0,0,0,0,0,0,0,0,0,0,2.831,2.8307,2.8173,2.8172,2.8171,2.8074,2.8073,2.8072,2.8017,2.8016,2.8016,2.8016,2.791,2.7907,2.7903,0,0,0,0,0,0,0,0,0,0,0,0,0,2.8234,2.8307,2.8173,2.8132,2.8127,2.8075,2.8073,2.8071,2.8017,2.8016,2.8016,2.8016,2.7911,2.7907,2.7903,2.7883,0,0,2.7891,2.7889,0,0,0,0,0,0,0,0,2.8239,2.8229,2.8139,2.8134,2.8129,2.8058,2.8082,2.8008,2.8017,2.8058,2.8016,2.8016,2.7958,2.795,2.7932,2.7878,2.7873,2.789,2.7888,2.7886,2.7885,0,0,0,0,0,0,0,2.8244,2.8233,2.8134,2.8138,2.8132,2.8116,2.8106,2.8068,2.8011,2.8055,2.805,2.804,2.7955,2.7936,2.7929,2.7872,2.789,2.7887,2.7884,2.7883,2.7797,2.7797,0,0,0,0,0,0,2.8257,2.8238,2.8137,2.8131,2.8185,2.8114,2.8102,2.8081,2.8011,2.8,2.804,2.8038,2.7943,2.7934,2.7925,2.7898,2.7886,2.7882,2.788,2.7797,2.7797,2.7797,0,0,0,0,0,0,2.826,2.8248,2.8141,2.8183,2.8169,2.8112,2.8089,2.8079,2.806,2.8,2.7989,2.8031,2.7943,2.7931,2.7894,2.7893,2.788,2.7877,2.7797,2.7797,2.7797,2.7842,0,0,0,0,0,0,2.8264,2.825,2.8242,2.8184,2.8167,2.8113,2.8089,2.8077,2.8053,2.8049,2.7989,2.7978,2.7941,2.7901,2.789,2.7887,2.7874,2.7797,2.7797,2.7797,2.7841,2.7844,2.7847,0,0,0,0,0,2.8269,2.8257,2.8242,2.823,2.8156,2.8113,2.8103,2.8063,2.8054,2.8045,2.8007,2.798,2.7895,2.7898,2.7885,2.7881,2.7796,2.7797,2.7797,2.7839,2.7843,2.7847,0,0,0,0,0,0,2.8314,2.8249,2.8231,2.82,2.8163,2.8104,2.8092,2.8068,2.8031,2.8028,2.7978,2.7965,2.7934,2.7903,2.7907,2.7859,2.7843,2.7841,2.7879,2.7883,2.7886,2.7893,2.787,0,0,0,0,0,2.8321,2.8293,2.8237,2.8215,2.8197,2.8148,2.8128,2.8101,2.8059,2.8042,2.8001,2.7961,2.7925,2.7902,2.7866,2.7837,2.7823,2.7828,2.7831,2.7834,2.7832,2.7815,2.7817,2.7798,2.7798,2.7798,0,0,2.8334,2.8295,2.8279,2.8223,2.8191,2.8162,2.8135,2.8105,2.8083,2.8037,2.8001,2.797,2.7921,2.7889,2.7872,2.7863,2.7835,2.7834,2.7837,2.7834,2.7816,2.7818,2.7819,2.7799,2.7799,2.7799,0,0,2.8342,2.831,2.8289,2.8259,2.8212,2.8179,2.8175,2.812,2.8098,2.8062,2.8027,2.7999,2.7938,2.7906,2.7881,2.7881,2.7855,2.787,2.7886,2.787,2.7872,2.7873,2.7873,2.7874,2.7869,2.7869,2.7869,0,2.8363,2.832,2.8281,2.8254,2.823,2.819,2.8168,2.814,2.8082,2.8066,2.8057,2.7982,2.7946,2.7906,2.7906,2.7887,2.788,2.7876,2.7875,2.7876,2.7876,2.7876,2.7876,2.7871,2.7871,2.7871,2.7871,0,2.8349,2.832,2.8308,2.8257,2.8232,2.8208,2.8163,2.8143,2.8118,2.8087,2.8051,2.8007,2.7962,2.795,2.7925,2.7907,2.7903,2.7885,2.7868,2.7881,2.788,2.7879,2.7875,2.7874,2.7873,2.7873,0,0,2.8381,2.8311,2.8307,2.8284,2.8231,2.8206,2.818,2.8139,2.8122,2.8084,2.8061,2.8012,2.7996,2.7969,2.7939,2.7926,2.7929,2.7909,2.7908,2.7915,2.7907,2.792,2.7921,2.7912,2.7912,2.7912,2.7911,0,2.8382,2.8335,2.83,2.8266,2.8239,2.8202,2.8179,2.8144,2.8114,2.8086,2.8052,2.8019,2.8,2.7984,2.7969,2.7932,2.7926,2.7931,2.7888,2.7887,2.7901,2.792,2.7933,2.7935,2.791,2.791,2.791,0,2.8376,2.8343,2.8307,2.8259,2.8246,2.8226,2.8186,2.816,2.8119,2.8098,2.8069,2.804,2.801,2.7997,2.7955,2.7959,2.794,2.792,2.7919,2.7912,2.7899,2.7914,2.7934,2.7934,2.7909,2.7909,2.7909,0,2.8403,2.8349,2.8322,2.8303,2.8245,2.8233,2.8208,2.8167,2.8145,2.8109,2.8094,2.8055,2.8033,2.8003,2.7964,2.7958,2.7926,2.791,2.7907,2.7909,2.7901,2.7902,2.7919,2.789,2.789,2.789,2.789,0,2.8407,2.8387,2.8334,2.8316,2.8293,2.8252,2.8229,2.8201,2.8165,2.8141,2.8106,2.8084,2.8034,2.8005,2.7974,2.7944,2.7934,2.7916,2.7908,2.7919,2.7922,2.7905,2.7904,2.789,2.789,2.789,2.789,0,2.8433,2.8397,2.8364,2.8313,2.83,2.8285,2.8241,2.8222,2.8193,2.8163,2.8153,2.8105,2.807,2.8029,2.7979,2.7958,2.7931,2.7919,2.7946,2.7941,2.7941,2.7941,2.7946,2.7945,2.7918,2.7919,2.7919,0,2.8438,2.8422,2.8371,2.8354,2.8331,2.8302,2.8281,2.8241,2.8219,2.8173,2.816,2.8123,2.8091,2.8036,2.7996,2.7958,2.7945,2.795,2.7939,2.7951,2.7945,2.7946,2.7945,2.7952,2.7953,2.7953,2.7953,0,2.845,2.8434,2.8405,2.837,2.8346,2.8316,2.8285,2.8272,2.8225,2.8203,2.8168,2.8144,2.8095,2.8059,2.8017,2.7989,2.7963,2.7958,2.7955,2.7965,2.7982,2.7973,2.7953,2.7957,2.7957,2.7956,2.7956,2.7956,2.8465,2.845,2.8413,2.8382,2.8355,2.8327,2.8308,2.8277,2.8248,2.8207,2.8184,2.815,2.811,2.8052,2.8026,2.7998,2.7988,2.7984,2.7983,2.7983,2.7986,2.7988,2.799,2.7989,2.7989,2.7989,2.7989,0,2.8476,2.8451,2.8424,2.8382,2.8358,2.8339,2.8304,2.8284,2.8256,2.8222,2.8193,2.8153,2.8118,2.8077,2.8039,2.8024,2.8011,2.8015,2.8016,2.801,2.7997,2.8003,2.8027,2.8027,2.8027,2.8027,2.8027,2.8027,2.8479,2.8453,2.8432,2.8392,2.8366,2.8334,2.8316,2.829,2.8263,2.8222,2.8193,2.8168,2.813,2.809,2.8057,2.8046,2.8033,2.8041,2.8026,2.8014,2.8011,2.8007,2.8013,2.8038,2.8039,2.8041,2.8041,2.8041]}]]